www.pogodaiklimat.ru

Погода и климат >> Архив погоды >> Пакистан >> Джейкобабад


ПОГОДА в Джейкобабаде

  • Прогноз погоды в Джейкобабаде
  • Монитор погоды в Джейкобабаде

АРХИВ ПОГОДЫ в Джейкобабаде

Время (UTC), дата Ветер
(напр.,м/с)
 
Видим.   Явления Облачность Т
(С)
Тd
(С)
f
(%)
Тe
(С)
Тes
(С)
Комфортность P
(гПа)
Po
(гПа)
Тmin
(С)
Tmax
(С)
R
(мм)
R24
(мм)
S
(см)
12 14.05 СВ 1 4000 м мгла 5/3 1050 м
[St Ac trans]
+39.0 +19.9 33 +44 +47 опасность
перегрева
998.5 992.4 +40.0
15 14.05 штиль 0 4000 м мгла 5/0
[Ac trans]
+37.0 +21.0 40 +44 +44 опасность
перегрева
999.8 1000.0
18 14.05 В 9 2000 м слаб. дождь 10/5 900 м
[Cb cap Ac trans]
+34.0 +20.8 46 +41 +41 опасность
перегрева
1002.1 996.0 4
21 14.05 В 5 4000 м в посл. час морось 10/5 1200 м
[St Ac lent]
+31.0 +18.8 48 +36 +36 очень
душно
1002.0 995.7 4
00 15.05 В 3 4000 м мгла 8/4 1200 м
[St Ac lent]
+29.0 +18.2 52 +34 +34 очень
душно
1001.7 995.4
03 15.05 штиль 0 4000 м мгла 6/3 1050 м
[Sc Ac trans]
+26.0 +21.5 76 +33 +37 очень
душно
1005.5 999.2 +21.5
06 15.05 штиль 0 4000 м мгла 9/4 1050 м
[Sc Ac trans]
+28.0 +21.3 67 +35 +43 очень
душно
1007.2 1000.9
09 15.05 штиль 0 4000 м мгла 9/4 1050 м
[Sc Ac trans]
+31.5 +22.0 57 +40 +48 очень
душно
1006.0 999.7
12 15.05 штиль 0 4000 м мгла 9/4 1050 м
[Sc Ac trans]
+32.0 +21.8 55 +41 +42 опасность
перегрева
1001.7 995.5 +33.0
15 15.05 штиль 0 4000 м мгла 8/4 1200 м
[St Ac trans]
+31.0 +21.4 57 +39 +39 очень
душно
1003.4 1000.0
18 15.05 В 2 4000 м мгла 8/4 1200 м
[St Ac trans]
+29.0 +21.6 64 +37 +37 очень
душно
1005.7 999.4
21 15.05 В 2 4000 м мгла 8/4 1200 м
[St Ac trans]
+27.5 +20.8 67 +34 +34 очень
душно
1004.9 998.5
00 16.05 СВ 1 4000 м мгла 6/4 1200 м
[St Ac trans]
+26.0 +19.9 69 +32 +32 очень
душно
1004.3 998.0
03 16.05 штиль 0 4000 м мгла 6/0
[Ac trans]
+26.0 +18.2 62 +31 +35 очень
душно
1008.0 1001.7 +24.0
06 16.05 СВ 2 4000 м мгла 6/0 1050 м
[Ac trans]
+30.0 +18.5 50 +35 +47 очень
душно
1008.8 1002.5
09 16.05 СВ 1 4000 м мгла 6/0 1050 м
[Ac trans]
+33.5 +20.1 45 +40 +57 опасность
солнечного
удара
1006.5 1000.0
12 16.05 СВ 1 4000 м мгла 6/0 1050 м
[Ac trans]
+34.5 +20.5 44 +41 +45 опасность
перегрева
1003.6 997.5 +35.0
15 16.05 штиль 0 4000 м мгла 8/4 1200 м
[St Ac trans]
+32.0 +21.8 55 +41 +41 опасность
перегрева
1005.0 1000.0
18 16.05 СВ 2 4000 м мгла 9/4 1200 м
[St Ac trans]
+28.0 +20.5 64 +35 +35 очень
душно
1007.1 1000.8
21 16.05 штиль 0 4000 м мгла 8/4 1200 м
[St Ac trans]
+24.0 +17.6 67 +28 +28 душно 1006.2 999.7
00 17.05 штиль 0 4000 м мгла 9/4 1200 м
[Sc Ac trans]
+22.0 +18.0 78 +27 +27 душно 1005.6 999.1
03 17.05 СВ 1 4000 м мгла 3/0
[Ci fib]
+26.0 +19.1 66 +31 +37 очень
душно
1008.1 1001.8 +22.0
06 17.05 СВ 1 4000 м мгла 3/0
[Ci fib]
+31.0 +19.7 51 +37 +60 опасность
солнечного
удара
1008.8 1002.5
09 17.05 СВ 1 4000 м мгла 3/0
[Ac trans]
+34.0 +18.9 41 +39 +58 опасность
солнечного
удара
1006.4 1000.0
12 17.05 СВ 1 4000 м мгла 4/0
[Ac trans]
+36.5 +19.4 37 +42 +46 опасность
перегрева
1003.5 997.4 +38.0
15 17.05 штиль 0 4000 м мгла 5/0
[Ac trans]
+32.0 +20.0 49 +38 +38 очень
душно
1004.9 1000.0
18 17.05 штиль 0 4000 м мгла 5/0
[Ac trans]
+30.0 +20.3 56 +37 +37 очень
душно
1006.3 1000.0
21 17.05 штиль 0 4000 м мгла 5/0
[Ac trans]
+27.0 +19.3 63 +33 +33 очень
душно
1004.7 1000.0
00 18.05 штиль 0 4000 м мгла ясно +25.0 +18.8 68 +30 +30 душно 1004.2 997.8
03 18.05 СВ 1 4000 м мгла 3/0
[Ci fib]
+28.0 +19.6 60 +34 +40 очень
душно
1006.8 1000.5 +24.5
06 18.05 СВ 2 4000 м мгла 4/0
[Ci fib]
+33.0 +19.5 45 +39 +56 опасность
солнечного
удара
1007.9 1001.7
09 18.05 СВ 1 4000 м мгла 3/0
[Ci fib]
+38.0 +17.5 30 +41 +63 опасность
перегрева
1004.3 1000.0
12 18.05 СВ 1 4000 м мгла 3/0
[Ci fib]
+40.5 +16.9 25 +43 +48 опасность
перегрева
1002.3 996.3 +41.0
15 18.05 штиль 0 4000 м мгла ясно +35.0 +20.2 42 +41 +41 опасность
перегрева
1004.1 1000.0
18 18.05 штиль 0 4000 м мгла 4/0
[Ac trans]
+32.0 +20.0 49 +38 +38 очень
душно
1005.6 999.4
21 18.05 штиль 0 4000 м мгла ясно +30.0 +19.4 53 +36 +36 очень
душно
1005.0 1000.0
00 19.05 штиль 0 4000 м мгла ясно +27.0 +19.3 63 +33 +33 очень
душно
1004.0 997.7
03 19.05 штиль 0 4000 м мгла ясно +29.0 +19.9 58 +35 +43 очень
душно
1005.7 999.4 +25.1
06 19.05 штиль 0 4000 м мгла 4/0
[Ac trans]
+36.0 +20.6 41 +43 +63 опасность
перегрева
1006.5 1000.2
09 19.05 штиль 0 4000 м мгла 3/0
[Ci fib]
+40.5 +19.0 29 +45 +69 опасность
перегрева
1004.2 1000.0
12 19.05 штиль 0 4000 м мгла 3/0
[Ci fib]
+41.0 +18.8 28 +45 +51 опасность
перегрева
1002.5 996.5 +42.5
15 19.05 штиль 0 4000 м мгла 8/4 1200 м
[St Ac trans]
+36.0 +21.5 43 +44 +44 опасность
перегрева
1004.1 1000.0
18 19.05 СВ 1 4000 м мгла 5/0
[Ac trans]
+33.0 +19.5 45 +39 +39 очень
душно
1005.9 999.7
21 19.05 штиль 0 4000 м мгла 5/0
[Ac trans]
+31.0 +18.8 48 +36 +36 очень
душно
1005.1 1000.0
00 20.05 штиль 0 4000 м мгла 5/0
[Ac trans]
+28.0 +18.8 57 +33 +33 очень
душно
1004.9 998.6
03 20.05 СВ 1 4000 м мгла 3/0
[Ci fib]
+31.0 +15.9 40 +34 +40 душно 1008.2 1001.9 +26.5
06 20.05 СВ 2 4000 м мгла 3/0
[Ci fib]
+35.5 +15.2 30 +37 +55 опасность
солнечного
удара
1008.3 1002.2
09 20.05 СВ 1 4000 м мгла 3/0
[Ci fib]
+39.0 +17.9 29 +42 +65 опасность
перегрева
1006.1 1000.0
12 20.05 СВ 1 4000 м мгла 3/0
[Ci fib]
+41.0 +16.6 24 +43 +48 опасность
перегрева
1004.4 998.4 +42.5
15 20.05 штиль 0 4000 м мгла 3/0
[Ac trans]
+36.5 +18.4 35 +41 +41 опасность
перегрева
1004.9 1000.0
18 20.05 штиль 0 4000 м мгла 4/0
[Ac trans]
+33.5 +18.3 41 +38 +38 очень
душно
1006.2 1000.0
21 20.05 штиль 0 4000 м мгла 4/0
[Ac trans]
+31.5 +15.8 39 +34 +34 душно 1004.7 1000.0
00 21.05 штиль 0 4000 м мгла 4/0
[Ac trans]
+29.5 +18.8 53 +35 +35 очень
душно
1004.3 998.0
03 21.05 штиль 0 4000 м мгла 3/0
[Ci fib]
+33.0 +17.6 40 +37 +44 очень
душно
1008.0 1001.8 +28.1
06 21.05 СВ 1 4000 м мгла 3/0
[Ci fib]
+38.5 +17.1 29 +41 +63 опасность
перегрева
1007.5 1001.4
09 21.05 штиль 0 4000 м мгла 3/0
[Ci fib]
+41.0 +16.6 24 +43 +67 опасность
перегрева
1004.9 1000.0

 

Местоположение метеостанции Джейкобабад (Пакистан): широта 28.30 долгота 68.47 высота над уровнем моря 56 м.

В архиве по умолчанию представлена погода в Джейкобабаде за последнюю неделю. Архивные данные за месяц целиком и за предыдущие месяцы, начиная с января 2011 года, Вы можете получить, выбрав интересующий диапазон дат из раскрывающегося списка и нажав кнопку "Ввод!".


*Определитесь, кто Вы:
робот инопланетянин человек

Внимание! Время в таблицах - всемирное. Для получения местного времени необходимо прибавить поправку, которая равна 5 ч.

Смотрите также архив погоды в соседних городах и на ближайших метеорологических станциях:

Погода в Суккуре (Пакистан) (72 км)
Погода в Рохри (Пакистан) (82 км)
Погода в Ларкане (Пакистан) (88 км)
Погода в Мохенджо-Даро (Пакистан) (114 км)
Погода в Сиби (Пакистан) (150 км)
Погода в Пад Идан (Пакистан) (165 км)
Погода в Рахим Яр Хан (Пакистан) (182 км)
Погода в Хуздаре (Пакистан) (188 км)
Погода в Калате (Пакистан) (202 км)
Погода в Бархане (Пакистан) (214 км)

Пояснения к столбцам:

Ветер - указаны скорость ветра в м/с - средняя за 10 мин, порывы в срок и между сроками (в фигурных скобках) и направление, откуда дует ветер: С - северный, СВ - северо-восточный, В - восточный, ЮВ - юго-восточный, Ю - южный, ЮЗ - юго-западный, З - западный, СЗ - северо-западный.
Видимость - горизонтальная дальность видимости в метрах или километрах. При видимости от 1 до 10 км при отсутствии осадков обычно наблюдается дымка, при ухудшении видимости до 1 км и менее - туман. В сухую погоду видимость может ухудшаться дымом, пылью или мглою.
Явления - указаны атмосферные явления, наблюдавшиеся в срок или в последний час перед сроком; фигурными скобками обозначены явления, наблюдавшиеся между сроками (за 1-3 часа до срока); квадратными скобками обозначены град или гололедные отложения с указанием их диаметра в мм.
Облачность - указаны через наклонную черту общая и нижняя облачность в баллах и высота нижней границы облаков в метрах; квадратными скобками обозначены формы облаков: Ci - перистые, Cs - перисто-слоистые, Cc - перисто-кучевые, Ac - высококучевые, As - высокослоистые, Sc - слоисто-кучевые, Ns - слоисто-дождевые, Cu - кучевые, Cb - кучево-дождевые. Подробнее классификацию облаков см. в Атласе облаков (PDF).
T - Температура воздуха - температура, измеренная на высоте 2 м над землей.
Td - Температура точки росы - температура, при понижении до которой содержащийся в воздухе водяной пар достигнет насыщения.
f - Относительная влажность воздуха - влажноcть воздуха, измеренная на высоте 2 м над землей.
Te - Эффективная температура - температура, которую ощущает одетый по сезону человек в тени. Характеристика душности погоды. При расчете учитывается влияние влажности воздуха и скорости ветра на теплоощущения человека.
Tes - Эффективная температура на солнце - температура, которую ощущает человек, с поправкой на солнечный нагрев. Характеристика знойности погоды. Зависит от высоты солнца над горизонтом, облачности и скорости ветра. Ночью, в пасмурную погоду, а также при ветре 12 м/с и более поправка равна нулю.
P - Атмосферное давление - приведенное к уровню моря атмосферное давление.
Po - Атмосферное давление - измеренное на уровне метеостанции атмосферное давление.
Tmin - Минимальная температура - минимум температуры воздуха на высоте 2 м над землей.
Tmax - Максимальная температура - максимум температуры воздуха на высоте 2 м над землей.
R - Количество осадков - Количество выпавших осадков за период времени, мм. При наведении курсора мыши на число - период времени, за который выпало указанное количество осадков.
R24 - Количество осадков - Количество выпавших осадков за 24 часа, мм.
S - Снежный покров - Высота снежного покрова, см. При наведении курсора мыши на число - состояние снежного покрова и степень покрытия местности в баллах.